STARLINK-38221, 100248

Orbit data source: Space-Track

STARLINK-38221, 100248 is a payload satellite owned by SpaceX/Seattle (US) in SSO that was launched on Sat, 08 Aug 2026 UTC launched from the Air Force Western Test Range (AFWTR). Payload-class satellites include a variety of spacecraft equipped with specific instruments for various scientific and technological missions. These include communications satellites like Starlink; space stations such as the ISS; scientific satellites like the Hubble; Earth observation satellites from companies like Planet Labs, Umbra, and HawkEye 360; GPS; miniature CubeSats for education and research; and military/defense satellites.

Not visible in the next 10 days
Identifier
100248, 2026-181C
Orbit
SSO
Country
Flag of USUS
Related business
Manufacturer
SpaceX/Seattle
Mission
Operational spacecraft
Bus & Motor
STARLINK V2MO, Unknown motor
Mass
575 kg wet, ~530 kg dry
Launch date (UTC)
2026-08-08 (1 month ago)
Launch vehicle
Unknown
Launch site
Air Force Western Test Range (AFWTR)
Object type
Payload
Rocket body
Debris
Shape & HBR
BOX + PAN, 17.7 m
Radar Cross Section
Large (>1 m²)

Expand to show TLE details & history
Last TLE update: 7 hours ago

TLE from 7 hours ago
0 STARLINK-38221
1 A0248U 26181C   26249.63519965  .00151690  00000-0  10007-2 0  9991
2 A0248  97.2848 292.4817 0001298 101.1129 259.0283 15.75172588  5724
Epoch: 2026-09-06T15:14Z
TLE epoch observation values (Epoch: 2026-09-06T15:14:41.249Z)
Latitude
0.00004°
Longitude
78.08233°
Altitude
347.475 km
Speed
7.7 km/s
True Right ascension
19h 29m 55s
True Declination
0° 00' 00"
Sunlit
Object was in full shadow at epoch
Visualization orbit readout
Latitude
Unknown
Longitude
Unknown
Altitude
Unknown
Speed
Unknown
Apparent Right ascension
Unknown
Apparent Declination
Unknown
Sunlit
N/A
Visualization observer readout
Local Sidereal Time
13:49:53
Azimuth
Unknown
Elevation
Unknown
Doppler factor
Unknown
Orbital elements
Apogee altitude
341.9 km
Perigee altitude
340.155 km
Semi-major axis
6,719.165 km
Eccentricity
0.00013
Inclination
97.2848°
RAAN
292.4817°
Arg. of periapsis
101.1129°
True anomaly
259.0137°
Mean anomaly
259.0283°
Eccentric anomaly
259.021°
Mean motion
3.94067 °/min
Orbital period
91.35 mins
BSTAR
0.0010007
Loading maneuver chart data...
Computing Atmospheric mass density...
Loading historical data...
Loading historical data...
Loading historical data...
Loading historical data...
Loading historical data...
Loading historical data...
Loading historical data...

Documentation

Showing up to 5 results
|